Regional Weather Roundup
Issued by NWS

Home | Current Version | Previous Version | Graphics & Text | Print | Product List | Glossary On
Versions: 1 2 3 4 5 6 7 8 9 10 11 12 13 14 15 16 17 18 19 20 21 22 23 24 25 26 27 28 29 30 31 32 33 34 35 36 37 38 39 40 41 42 43 44 45 46 47 48 49 50
000
ASUS43 KLOT 280808
RWRIL

ILLINOIS REGIONAL WEATHER ROUNDUP
NATIONAL WEATHER SERVICE CHICAGO/ROMEOVILLE IL
200 AM CST TUE FEB 28 2017

NOTE: "FAIR" INDICATES FEW OR NO CLOUDS BELOW 12,000 FEET WITH NO
SIGNIFICANT WEATHER AND/OR OBSTRUCTIONS TO VISIBILITY.

* THESE STATIONS ARE NOT UNDER NWS QUALITY CONTROL. THEY ALSO MAY NOT
  REPORT WEATHER SUCH AS PRECIPITATION OR FOG.

ILZ001-002-007-009-015-016-024-280900-
NORTHWEST ILLINOIS

CITY           SKY/WX    TMP DP  RH WIND       PRES   REMARKS
MOLINE         CLOUDY    50  43  77 S12       29.81F
STERLING*      CLOUDY    47  44  90 VRB7      29.86F
$$

ILZ003-004-008-010-011-017-018-280900-
NORTH CENTRAL ILLINOIS

CITY           SKY/WX    TMP DP  RH WIND       PRES   REMARKS
ROCKFORD       LGT RAIN  46  42  86 E9        29.91S
FREEPORT*      LGT RAIN  43  42  96 SE10      29.89F
ROCHELLE*      CLOUDY    45  43  92 SE15      29.88F
DE KALB*       CLOUDY    45  42  91 SE13      29.90F
PERU*          CLOUDY    48  45  90 S14G21    29.89F
$$

ILZ005-006-012>014-019>023-280900-
NORTHEAST ILLINOIS

CITY           SKY/WX    TMP DP  RH WIND       PRES   REMARKS
CHICAGO-OHARE  CLOUDY    47  42  83 SE16      29.93F
CHICAGO-MIDWAY LGT RAIN  48  41  76 SE14      29.94F
AURORA         CLOUDY    47  43  86 SE15      29.91F
LANSING*       CLOUDY    45  44  95 SE12      29.96F
JOLIET*        CLOUDY    47  44  91 SE8       29.94F
WAUKEGAN       LGT RAIN  41  39  93 SE10      29.94F FOG
DUPAGE AIRPORT CLOUDY    47  41  80 SE12      29.91F
KANKAKEE*      MOCLDY    46  44  94 SE13      29.94F
WHEELING       CLOUDY    46  41  82 SE7       29.95F
MORRIS*        LGT RAIN  47  44  87 S16G22    29.91F
ROMEOVILLE*    CLOUDY    45  44  97 S18       29.93F
NORTHERLY ISL    N/A     41  38  89 S8          N/A
$$

LMZ740>746-280900-
SOUTHERN LAKE MICHIGAN

STATION/POSITION SKY/WX   TEMP    WIND        PRES    VSBY  WAVE
                          AIR SEA DIR/SP/G                  HT/PER
                          (F)     (DEG/KT/KT) (MB)    (MI)  (FT/S)
HARRISON CRIB              41     140/ 13/ 14   N/A
BURNHAM HARBOR             41     120/  7/  7   N/A
CALUMET HARBOR             46     150/ 10/ 14 1014.3F
BURNS HARBOR               46     150/  7/ 14 1016.3F
MICHIGAN CITY              45     120/ 12/ 16   N/A
$$

ILZ025>027-034>036-040-047-049-050-058-095>099-280900-
WEST-CENTRAL ILLINOIS

CITY           SKY/WX    TMP DP  RH WIND       PRES   REMARKS
QUINCY         MOCLDY    53  47  79 S12       29.84F
GALESBURG*     CLOUDY    50  46  85 SE10      29.85F
MACOMB*        MOCLDY    53  48  83 S14       29.86F
JACKSONVILLE*  MOCLDY    54  49  85 S13       29.89F
PITTSFIELD*    CLOUDY    55  50  83 S10       29.88F
$$

ILZ028>032-037-038-041>044-048-051>054-059>061-280900-
CENTRAL ILLINOIS

CITY           SKY/WX    TMP DP  RH WIND       PRES   REMARKS
PONTIAC        LGT RAIN  50  48  95 S24G31    29.93F
BLOOMINGTON    CLOUDY    48  45  87 SE12      29.94R THUNDER
DECATUR        CLOUDY    52  46  80 S17G23    29.93F
PEORIA         CLOUDY    51  47  86 S13       29.88F
LACON*         CLOUDY    49  47  91 SE16      29.88F
LINCOLN*       CLOUDY    51  49  92 CALM      29.92S
SPRINGFIELD    CLOUDY    55  48  77 S21G29    29.90F
TAYLORVILLE    CLOUDY    51  49  90 S13G23    29.94S
$$

ILZ033-039-045-046-055>057-062-063-280900-
EAST-CENTRAL ILLINOIS

CITY           SKY/WX    TMP DP  RH WIND       PRES   REMARKS
CHAMPAIGN      LGT RAIN  48  44  86 S12       29.96F
RANTOUL*       CLOUDY    49  46  88 SE13      29.96F
MATTOON        CLOUDY    51  48  89 S9G22     29.98F
PARIS*         CLOUDY    49  46  88 S13G21    30.02R
$$

ILZ079-100>102-280900-
SOUTHWEST ILLINOIS

CITY           SKY/WX    TMP DP  RH WIND       PRES   REMARKS
ALTON          CLOUDY    53  50  89 S7        29.94F
BELLEVILLE     LGT RAIN  54  54 100 VRB6      29.93F
CAHOKIA*       PTCLDY    55  49  80 S8        29.93F
SPARTA*        CLOUDY    55  49  82 S15G21    29.98S
$$

ILZ064>066-069>071-074>076-080>082-084>086-088>090-092>094-280900-
SOUTH-CENTRAL ILLINOIS

CITY           SKY/WX    TMP DP  RH WIND       PRES   REMARKS
CARBONDALE     CLOUDY    54  50  86 S10       30.00F
CAIRO*         CLOUDY    54  51  88 S8        30.02F
EFFINGHAM*     CLOUDY    50  50  99 SE6       30.00F
MARION         CLOUDY    55  50  82 S15       30.01F
MT. VERNON     CLOUDY    53  49  86 S9        29.99F
CENTRALIA*     CLOUDY    54  51  90 S8        29.97F
SALEM*         CLOUDY    55  49  81 SW7       29.99R
METROPOLIS*    CLOUDY    53  51  92 CALM      30.05F
$$

ILZ067-068-072-073-078-083-087-091-280900-
SOUTHEAST ILLINOIS

CITY           SKY/WX    TMP DP  RH WIND       PRES   REMARKS
LAWRENCEVILLE  LGT RAIN  51  46  83 S20       30.00F
FLORA*         CLOUDY    52  48  85 S13G18    29.99R THUNDER
FAIRFIELD*     TSTM      52  49  90 S7        29.99F
HARRISBURG*    CLOUDY    54  49  81 S9        30.02F
ROBINSON*      CLOUDY    51  45  78 S14       30.01S
CARMI*         CLOUDY    53  47  82 S9        30.03S
$$

ABBREVIATIONS USED IN REMARKS
   TC - TEMPERATURE IN CELSIUS
  WCI - WIND CHILL INDEX
   HX - HEAT INDEX
  VSB - VISIBILITY
$$




USA.gov is the U.S. government's official web portal to all federal, state and local government web resources and services.